Date String (YYYY-MM-DD hh:mm:ss) UTC,Instrument flags,absolute air pressure of the measurement (hPa),sample flow rate (lpm),inlet stack bypass flow (lpm),air temperature of the measurement (°C),ambient temperature measured by the external sensor (°C),aerosol sample conditioner tube jacket temperature (°C),OPC LED temperature (°C),internal box temperature (°C),relative humidity of the measurement (%),span deviation,mass concentration of particles derived from Lorenz-Mie calculation of OPC scattering (μg/m³),mass concentration of particles derived from Lorenz-Mie calculation of OPC scattering (μg/m³),mass concentration of particles derived from Lorenz-Mie calculation of OPC scattering (μg/m³)
DateTimeUTC,F1_M11,P_M11,Q1_M11,Q2_M11,T1_M11,T2_M11,T3_M11,T4_M11,T5_M11,U1_M11,ZSPAN_M11,X0_M11,X2_M11,X1_M11
2023-07-01 14:00:00,SystemResetWarning,0835.1,4.99,000.00,029.9,026.8,000.0,038.5,031.1,21.4,0000.0,0006.41,0003.07,0002.66
2023-07-01 14:01:00,SystemResetWarning,0835.2,4.99,000.00,029.8,027.1,000.0,038.5,031.2,23.2,0000.0,0006.27,0003.06,0002.68
2023-07-01 14:02:00,SystemResetWarning,0835.1,5.00,000.00,029.8,027.4,000.0,038.5,031.2,23.1,0000.0,0005.33,0003.04,0002.68
2023-07-01 14:03:00,SystemResetWarning,0835.1,5.00,000.00,029.8,027.6,000.0,038.5,031.2,21.3,0000.0,0004.61,0003.03,0002.70
2023-07-01 14:04:00,SystemResetWarning,0835.1,5.01,000.00,029.8,027.8,000.0,038.5,031.3,22.1,0000.0,0003.87,0002.99,0002.69
2023-07-01 14:05:00,SystemResetWarning,0835.2,4.99,000.00,029.8,028.0,000.0,038.5,031.3,19.9,0000.0,0003.85,0002.99,0002.69
2023-07-01 14:06:00,SystemResetWarning,0835.1,4.99,000.00,029.8,028.1,000.0,038.5,031.3,21.3,0000.0,0003.70,0002.99,0002.69
2023-07-01 14:07:00,SystemResetWarning,0835.2,5.00,000.00,029.8,028.2,000.0,038.5,031.3,24.4,0000.0,0003.57,0002.96,0002.70
2023-07-01 14:08:00,SystemResetWarning,0835.2,5.00,000.00,029.8,028.3,000.0,038.5,031.4,25.5,0000.0,0003.54,0002.94,0002.69
2023-07-01 14:09:00,SystemResetWarning,0835.1,5.00,000.00,029.9,028.4,000.0,038.4,031.4,26.2,0000.0,0003.73,0002.95,0002.70
2023-07-01 14:10:00,SystemResetWarning,0835.1,5.00,000.00,029.9,028.5,000.0,038.4,031.4,23.1,0000.0,0003.86,0002.97,0002.72
2023-07-01 14:11:00,SystemResetWarning,0835.1,5.00,000.00,029.9,028.5,000.0,038.5,031.4,21.7,0000.0,0004.05,0002.99,0002.73
2023-07-01 14:12:00,SystemResetWarning,0835.1,5.01,000.00,029.9,028.6,000.0,038.5,031.4,22.6,0000.0,0004.18,0003.04,0002.74
2023-07-01 14:13:00,SystemResetWarning,0835.1,5.00,000.00,029.9,028.6,000.0,038.5,031.5,20.6,0000.0,0004.62,0003.10,0002.75
2023-07-01 14:14:00,SystemResetWarning,0835.1,4.99,000.00,029.9,028.6,000.0,038.5,031.5,21.6,0000.0,0004.70,0003.11,0002.74
2023-07-01 14:15:00,SystemResetWarning,0835.1,5.00,000.00,029.9,028.7,000.0,038.5,031.5,19.8,0000.0,0004.74,0003.12,0002.75
2023-07-01 14:16:00,SystemResetWarning,0835.1,4.99,000.00,030.0,028.7,000.0,038.5,031.5,20.0,0000.0,0004.75,0003.11,0002.75
2023-07-01 14:17:00,SystemResetWarning,0835.2,5.00,000.00,030.0,028.7,000.0,038.5,031.5,20.9,0000.0,0004.78,0003.12,0002.75
2023-07-01 14:18:00,SystemResetWarning,0835.1,4.99,000.00,030.0,028.0,000.0,038.4,031.5,21.3,0000.0,0004.79,0003.12,0002.75
2023-07-01 14:19:00,SystemResetWarning,0835.1,5.01,000.00,030.0,026.1,000.0,038.3,031.3,21.1,0000.0,0004.88,0003.15,0002.75
2023-07-01 14:20:00,SystemResetWarning,0835.1,5.00,000.00,029.9,025.3,000.0,038.2,031.1,22.3,0000.0,0006.01,0003.16,0002.75
2023-07-01 14:21:00,SystemResetWarning,0835.1,5.01,000.00,029.8,025.6,000.0,038.2,030.9,23.7,0000.0,0005.98,0003.15,0002.74
2023-07-01 14:22:00,SystemResetWarning,0835.1,5.00,000.00,029.7,025.9,000.0,038.2,030.8,25.6,0000.0,0005.95,0003.16,0002.73
2023-07-01 14:23:00,SystemResetWarning,0835.1,5.01,000.00,029.6,026.3,000.0,038.2,030.8,24.1,0000.0,0006.76,0003.13,0002.73
2023-07-01 14:24:00,SystemResetWarning,0835.1,4.99,000.00,029.6,026.7,000.0,038.2,030.9,22.3,0000.0,0007.04,0003.13,0002.73
2023-07-01 14:25:00,SystemResetWarning,0835.1,5.00,000.00,029.6,027.0,000.0,038.2,031.0,20.9,0000.0,0007.33,0003.12,0002.74
2023-07-01 14:26:00,SystemResetWarning,0835.2,5.00,000.00,029.6,027.3,000.0,038.2,031.0,21.7,0000.0,0007.86,0003.11,0002.75
2023-07-01 14:27:00,SystemResetWarning,0835.2,5.00,000.00,029.6,027.5,000.0,038.2,031.0,21.1,0000.0,0008.22,0003.14,0002.76
2023-07-01 14:28:00,SystemResetWarning,0835.2,5.01,000.00,029.6,027.7,000.0,038.2,031.1,21.4,0000.0,0008.27,0003.15,0002.76
2023-07-01 14:29:00,SystemResetWarning,0835.2,5.00,000.00,029.6,027.9,000.0,038.2,031.1,22.0,0000.0,0008.28,0003.16,0002.76
2023-07-01 14:30:00,SystemResetWarning,0835.3,4.99,000.00,029.6,028.0,000.0,038.2,031.1,23.0,0000.0,0008.23,0003.14,0002.76
2023-07-01 14:31:00,SystemResetWarning,0835.3,4.99,000.00,029.6,028.1,000.0,038.2,031.2,22.4,0000.0,0007.50,0003.14,0002.77
2023-07-01 14:32:00,SystemResetWarning,0835.3,5.00,000.00,029.6,028.2,000.0,038.2,031.2,22.0,0000.0,0007.54,0003.15,0002.77
2023-07-01 14:33:00,SystemResetWarning,0835.3,5.00,000.00,029.7,028.3,000.0,038.2,031.2,22.6,0000.0,0007.47,0003.14,0002.75
2023-07-01 14:34:00,SystemResetWarning,0835.3,5.01,000.00,029.7,028.3,000.0,038.2,031.2,23.8,0000.0,0006.81,0003.13,0002.75
2023-07-01 14:35:00,SystemResetWarning,0835.3,5.00,000.00,029.7,028.4,000.0,038.2,031.3,24.2,0000.0,0005.99,0003.12,0002.75
2023-07-01 14:36:00,SystemResetWarning,0835.2,5.01,000.00,029.7,028.4,000.0,038.2,031.3,23.7,0000.0,0005.61,0003.13,0002.77
2023-07-01 14:37:00,SystemResetWarning,0835.2,5.00,000.00,029.7,028.5,000.0,038.3,031.3,24.5,0000.0,0004.71,0003.16,0002.77
2023-07-01 14:38:00,SystemResetWarning,0835.2,4.99,000.00,029.8,028.5,000.0,038.3,031.3,25.7,0000.0,0004.16,0003.15,0002.77
2023-07-01 14:39:00,SystemResetWarning,0835.2,4.99,000.00,029.8,028.6,000.0,038.3,031.3,26.4,0000.0,0004.04,0003.15,0002.79
2023-07-01 14:40:00,SystemResetWarning,0835.2,5.00,000.00,029.8,028.6,000.0,038.3,031.4,27.4,0000.0,0004.11,0003.17,0002.82
2023-07-01 14:41:00,SystemResetWarning,0835.2,4.99,000.00,029.8,028.6,000.0,038.3,031.4,28.7,0000.0,0004.20,0003.20,0002.85
2023-07-01 14:42:00,SystemResetWarning,0835.2,5.00,000.00,029.8,028.5,000.0,038.3,031.4,27.2,0000.0,0004.26,0003.21,0002.86
2023-07-01 14:43:00,SystemResetWarning,0835.2,5.00,000.00,029.8,026.9,000.0,038.2,031.3,28.3,0000.0,0004.18,0003.20,0002.88
2023-07-01 14:44:00,SystemResetWarning,0835.2,5.00,000.00,029.8,025.4,000.0,038.1,031.0,28.4,0000.0,0005.59,0003.21,0002.91
2023-07-01 14:45:00,SystemResetWarning,0835.2,5.01,000.00,029.7,025.3,000.0,038.0,030.9,26.9,0000.0,0005.94,0003.25,0002.94
2023-07-01 14:46:00,SystemResetWarning,0835.2,5.01,000.00,029.6,025.6,000.0,038.0,030.7,26.0,0000.0,0006.12,0003.28,0002.96
2023-07-01 14:47:00,SystemResetWarning,0835.2,5.00,000.00,029.5,026.0,000.0,038.1,030.7,24.9,0000.0,0006.17,0003.29,0002.97
2023-07-01 14:48:00,SystemResetWarning,0835.2,5.00,000.00,029.5,026.4,000.0,038.1,030.8,24.2,0000.0,0006.11,0003.28,0002.98
2023-07-01 14:49:00,SystemResetWarning,0835.2,4.99,000.00,029.4,026.7,000.0,038.1,030.8,24.5,0000.0,0006.17,0003.29,0002.99
2023-07-01 14:50:00,SystemResetWarning,0835.2,5.00,000.00,029.4,027.0,000.0,038.1,030.9,25.7,0000.0,0006.17,0003.28,0002.98
2023-07-01 14:51:00,SystemResetWarning,0835.2,5.00,000.00,029.4,027.3,000.0,038.1,030.9,24.6,0000.0,0006.48,0003.28,0002.97
2023-07-01 14:52:00,SystemResetWarning,0835.2,5.01,000.00,029.4,027.5,000.0,038.1,031.0,24.8,0000.0,0006.48,0003.28,0002.97
2023-07-01 14:53:00,SystemResetWarning,0835.2,5.00,000.00,029.5,027.7,000.0,038.1,031.0,25.5,0000.0,0006.39,0003.27,0002.97
2023-07-01 14:54:00,SystemResetWarning,0835.2,5.00,000.00,029.5,027.8,000.0,038.1,031.0,24.7,0000.0,0006.65,0003.28,0002.96
2023-07-01 14:55:00,SystemResetWarning,0835.2,4.99,000.00,029.5,028.0,000.0,038.1,031.1,24.7,0000.0,0005.65,0003.29,0002.96
2023-07-01 14:56:00,SystemResetWarning,0835.2,5.00,000.00,029.5,028.1,000.0,038.1,031.1,25.1,0000.0,0005.39,0003.30,0002.95
2023-07-01 14:57:00,SystemResetWarning,0835.3,5.01,000.00,029.5,028.1,000.0,038.1,031.1,25.3,0000.0,0005.31,0003.30,0002.95
2023-07-01 14:58:00,SystemResetWarning,0835.3,5.00,000.00,029.5,028.2,000.0,038.1,031.1,25.7,0000.0,0005.31,0003.30,0002.96
2023-07-01 14:59:00,SystemResetWarning,0835.2,5.01,000.00,029.6,028.3,000.0,038.1,031.2,26.4,0000.0,0005.37,0003.31,0002.97
